Погода в Гаврове

Россия / Псковская область     57°43′44″N   30°08′46″E
темп.,
°C
ветер,
м/с
пор.,
м/с
влажн.,
%
обл.,
%
осадки,
мм/ч
давл.,
гПа
погр.,
м
11 апреля, вс
вс1100:00+2юз249423 0.0 102085
03:00+1зюз1191100 0.0 102219
06:000ююз119157 0.0 102310
09:00+5ююв128191 0.0 1025249
12:00+9ю236099 0.0 10261284
15:00+10ю3362100 0.0 1027945
18:00+9вюв2575100 0.0 1027580
21:00+7вюв279068 0.0 1027234
12 апреля, пн
пн1200:00+7юв3892100 0.0 1028208
03:00+7ююв3109310 0.0 1027209
06:00+6ююв41287100 0.0 1027267
09:00+9ю41372100 0.0 1027471
12:00+14ю5105235 0.0 1027952
15:00+16ю594326 0.0 10251511
18:00+15ююв48482 0.0 1023864
21:00+9ююв39720 0.0 1023163
13 апреля, вт
вт1300:00+7ююв39790 0.0 1022170
03:00+5ююв388598 0.0 1021152
06:00+5ююв3893100 0.0 1021174
09:00+10ю377256 0.0 1020296
12:00+14ю4756100 0.0 1020688
15:00+16юз364558 0.0 10201529
18:00+14зсз3659100 0.0 1019349
21:00+7сз4788100 0.0 1022406
14 апреля, ср
ср1400:00+6ссз3786100 0.0 1022367
03:00+4ссз389292 0.0 1022371
06:00+5с3790100 0.3 1022485
09:00+4с3793100 3.4 1022612
12:00+4ссв3897100 3.1 1023584
15:00+3ссв41097100 5.9 1023513
18:00+3ссв3997100 0.3 1023554
21:00+3св2993100 0.4 1024497
15 апреля, чт
чт1500:00+3с2892100 0.1 1024381
03:00+2ссв3985100 0.1 1024427
06:00+2ссв31090100 0.0 1024543
09:00+3ссв41074100 0.0 1025636
12:00+5ссв4862100 0.0 1026942
15:00+8св5848100 0.0 10261227
18:00+8св59477 0.0 10261371
21:00+4ссв412620 0.0 1028487